Home   Weather   Vennesla   Past weeks

Flag for Norway Past Weather in Vennesla, Norway — Yesterday and Last 2 Weeks

Now
61 °F

Mostly cloudy.


Feels Like: 61 °F
Forecast: 55 / 64 °F
Wind: 12 mph from Southwest

Location: Kristiansand / Kjevik

Current Time: Sep 1, 2016 at 1:36:35 AM

Latest Report: Sep 1, 2016 at 12:50 AM


Visibility: N/A

Pressure: 29.92 "Hg

Humidity: 88%

Dew Point: 57 °F

Location of VenneslaLocation

Past Weather in Vennesla — Graph

°F

Vennesla Temperature Yesterday

Maximum temperature yesterday: 66 °F (at 2:20 PM)
Minimum temperature yesterday: 54 °F (at 2:20 AM)
Average temperature yesterday: 61 °F

High & Low Weather Summary for the Past Weeks

 TemperatureHumidityPressure
High72 °F (Aug 17, 11:50 AM)100% (Aug 17, 12:50 AM)30.27 "Hg (Aug 17, 12:50 AM)
Low48 °F (Aug 17, 6:20 AM)38% (Aug 29, 5:20 PM)29.74 "Hg (Aug 20, 5:20 PM)
Average61 °F83%29.99 "Hg
* Reported Aug 17 12:20 AM — Sep 1 12:20 AM, Vennesla, Weather by CustomWeather, © 2016

Note: Actual official high and low records may vary slightly from our data, if they occured in-between our weather recording intervals... More about our weather records

Advertising

Vennesla Weather History for the Previous 24 Hours

Scroll right to see more
 ConditionsComfort  
Time TempWeatherWind HumidityBarometerVisibility
12:20 AM
Thu, Sep 1
61 °FPartly cloudy.12 mph94%29.89 "HgN/A
11:50 PM
Wed, Aug 31
61 °FMostly cloudy.12 mph94%29.89 "HgN/A
11:20 PM61 °FDrizzle. Mostly cloudy.14 mph88%29.92 "HgN/A
10:50 PM61 °FPassing clouds.10 mph88%29.92 "HgN/A
10:20 PM61 °FPassing clouds.13 mph88%29.92 "HgN/A
9:50 PM63 °FPassing clouds.12 mph83%29.92 "HgN/A
9:20 PM63 °FPartly sunny.12 mph88%29.92 "HgN/A
8:50 PM63 °FScattered clouds.12 mph88%29.92 "HgN/A
8:20 PM63 °FBroken clouds.12 mph88%29.92 "HgN/A
7:50 PM63 °FScattered showers. Broken clouds.14 mph88%29.92 "HgN/A
7:20 PM63 °FSprinkles. Partly sunny.15 mph88%29.95 "HgN/A
6:50 PM63 °FPartly sunny.15 mph88%29.95 "HgN/A
6:20 PM63 °FPartly sunny.15 mph88%29.95 "HgN/A
5:50 PM64 °FPartly sunny.15 mph83%29.98 "HgN/A
5:20 PM64 °FPartly sunny.15 mph88%29.98 "HgN/A
4:50 PM66 °FPartly sunny.15 mph78%29.98 "HgN/A
4:20 PM64 °FPartly sunny.17 mph88%30.01 "HgN/A
3:50 PM66 °FScattered clouds.16 mph78%30.01 "HgN/A
3:20 PM66 °FScattered clouds.20 mph73%30.01 "HgN/A
2:50 PM66 °FScattered clouds.17 mph73%30.01 "HgN/A
2:20 PM66 °FPartly sunny.14 mph73%30.01 "HgN/A
1:50 PM64 °FPartly sunny.15 mph83%30.04 "HgN/A
1:20 PM64 °FPartly sunny.16 mph83%30.04 "HgN/A
12:50 PM64 °FPartly sunny.15 mph83%30.04 "HgN/A
12:20 PM64 °FPartly sunny.12 mph83%30.04 "HgN/A
11:50 AM63 °FPartly sunny.10 mph88%30.04 "HgN/A
11:20 AM63 °FPartly sunny.10 mph88%30.04 "HgN/A
10:50 AM63 °FPartly sunny.9 mph88%30.07 "HgN/A
10:20 AM64 °FPartly sunny.9 mph83%30.07 "HgN/A
9:50 AM63 °FBroken clouds.5 mph88%30.07 "HgN/A
9:20 AM63 °FPartly sunny.7 mph88%30.07 "HgN/A
8:50 AM61 °FBroken clouds.6 mph88%30.07 "HgN/A
8:20 AM61 °FBroken clouds.5 mph88%30.07 "HgN/A
7:50 AM61 °FPartly sunny.3 mph88%30.07 "HgN/A
7:20 AM59 °FPassing clouds.3 mph94%30.07 "HgN/A
6:50 AM59 °FPassing clouds.5 mph94%30.07 "HgN/A
6:20 AM59 °FPassing clouds.6 mph94%30.07 "HgN/A
5:50 AM59 °FOvercast.6 mph94%30.07 "HgN/A
5:20 AM57 °FMostly cloudy.3 mph94%30.07 "HgN/A
4:50 AM59 °FOvercast.3 mph88%30.09 "HgN/A
4:20 AM59 °FOvercast.6 mph88%30.09 "HgN/A
3:50 AM57 °FOvercast.3 mph94%30.09 "HgN/A
3:20 AM57 °FPassing clouds.6 mph88%30.09 "HgN/A
2:50 AM55 °FPassing clouds.5 mph94%30.09 "HgN/A
2:20 AM54 °FPassing clouds.1 mph94%30.09 "HgN/A
1:50 AM57 °FPassing clouds.5 mph88%30.09 "HgN/A
1:20 AM57 °FPassing clouds.7 mph88%30.09 "HgN/A
Weather by CustomWeather, © 2016

See weather overviewHow to use our weather pages